• In Deutschland
  • Länderverzeichnis
  • Für 7 Tage
  • Wassertemperatur
  • Satellitenkarten
  • Wetterkarte
  • Widgets
  • user-avatar
    Anmelden

    Stündliche Wetter Artaschat

    Heute, 27 Mai, Sonntag

    Zeit Temperatur Niederschläge Wind Luftdruck Luftfeuchtigkeit
    00:00 +12°C° 0 mm 1 m/S 603 mmHg 54%
    01:00 +12°C° 0 mm 1 m/S 603 mmHg 55%
    02:00 +12°C° 0 mm 1 m/S 603 mmHg 56%
    03:00 +11°C° 0 mm 1 m/S 603 mmHg 56%
    04:00 +12°C° 0 mm 1 m/S 603 mmHg 55%
    05:00 +12°C° 0 mm 1 m/S 604 mmHg 54%
    06:00 +13°C° 0 mm 1 m/S 605 mmHg 53%
    07:00 +15°C° 0 mm 1 m/S 606 mmHg 47%
    08:00 +16°C° 0 mm 1 m/S 606 mmHg 41%
    09:00 +19°C° 0 mm 1 m/S 607 mmHg 35%
    10:00 +20°C° 0 mm 1 m/S 607 mmHg 32%
    11:00 +21°C° 0 mm 1 m/S 608 mmHg 30%
    12:00 +22°C° 0 mm 1 m/S 608 mmHg 27%
    13:00 +23°C° 0 mm 2 m/S 608 mmHg 27%
    14:00 +23°C° 0 mm 2 m/S 608 mmHg 26%
    15:00 +21°C° 0 mm 2 m/S 608 mmHg 28%
    16:00 +21°C° 0 mm 2 m/S 608 mmHg 30%
    17:00 +21°C° 0 mm 2 m/S 608 mmHg 31%
    18:00 +20°C° 0 mm 2 m/S 609 mmHg 33%
    19:00 +18°C° 0 mm 2 m/S 608 mmHg 38%
    20:00 +16°C° 0 mm 1 m/S 608 mmHg 44%
    21:00 +14°C° 0 mm 1 m/S 607 mmHg 50%
    22:00 +14°C° 0 mm 1 m/S 607 mmHg 52%
    23:00 +13°C° 0 mm 1 m/S 607 mmHg 55%

    Morgen, 28 Mai, Montag

    Zeit Temperatur Niederschläge Wind Luftdruck Luftfeuchtigkeit
    00:00 +13°C° 0 mm 1 m/S 607 mmHg 57%
    01:00 +12°C° 0 mm 1 m/S 606 mmHg 59%
    02:00 +11°C° 0 mm 1 m/S 606 mmHg 62%
    03:00 +11°C° 0 mm 1 m/S 606 mmHg 64%
    04:00 +12°C° 0 mm 1 m/S 606 mmHg 62%
    05:00 +12°C° 0 mm 1 m/S 606 mmHg 60%
    06:00 +13°C° 0 mm 1 m/S 607 mmHg 57%
    07:00 +15°C° 0 mm 1 m/S 607 mmHg 52%
    08:00 +16°C° 0 mm 1 m/S 607 mmHg 47%
    09:00 +19°C° 0 mm 1 m/S 607 mmHg 41%
    10:00 +20°C° 0 mm 1 m/S 607 mmHg 38%
    11:00 +21°C° 0 mm 1 m/S 607 mmHg 34%
    12:00 +23°C° 0 mm 1 m/S 608 mmHg 31%
    13:00 +23°C° 0 mm 2 m/S 607 mmHg 30%
    14:00 +24°C° 0 mm 2 m/S 607 mmHg 28%
    15:00 +24°C° 0 mm 2 m/S 607 mmHg 27%
    16:00 +24°C° 0 mm 2 m/S 607 mmHg 29%
    17:00 +23°C° 0 mm 2 m/S 606 mmHg 31%
    18:00 +21°C° 0 mm 2 m/S 606 mmHg 33%
    19:00 +21°C° 0,1 mm 1 m/S 605 mmHg 38%
    20:00 +19°C° 0,1 mm 1 m/S 605 mmHg 43%
    21:00 +16°C° 0,1 mm 1 m/S 604 mmHg 49%
    22:00 +15°C° 0 mm 1 m/S 604 mmHg 50%
    23:00 +15°C° 0 mm 1 m/S 604 mmHg 51%

    übermorgen, 29 Mai, Dienstag

    Zeit Temperatur Niederschläge Wind Luftdruck Luftfeuchtigkeit
    00:00 +15°C° 0 mm 1 m/S 604 mmHg 51%
    01:00 +14°C° 0 mm 1 m/S 604 mmHg 52%
    02:00 +14°C° 0 mm 1 m/S 603 mmHg 52%
    03:00 +14°C° 0 mm 1 m/S 603 mmHg 52%
    04:00 +14°C° 0 mm 1 m/S 603 mmHg 52%
    05:00 +15°C° 0 mm 1 m/S 603 mmHg 52%
    06:00 +15°C° 0 mm 1 m/S 603 mmHg 51%
    07:00 +16°C° 0 mm 2 m/S 604 mmHg 47%
    08:00 +18°C° 0 mm 2 m/S 604 mmHg 42%
    09:00 +19°C° 0 mm 2 m/S 604 mmHg 37%
    10:00 +19°C° 0,1 mm 2 m/S 605 mmHg 37%
    11:00 +20°C° 0,1 mm 3 m/S 605 mmHg 37%
    12:00 +20°C° 0,1 mm 3 m/S 605 mmHg 37%
    13:00 +19°C° 0,8 mm 3 m/S 605 mmHg 43%
    14:00 +18°C° 0,8 mm 3 m/S 604 mmHg 49%
    15:00 +17°C° 0,8 mm 3 m/S 604 mmHg 55%
    16:00 +16°C° 0,8 mm 2 m/S 603 mmHg 59%
    17:00 +15°C° 0,8 mm 2 m/S 603 mmHg 63%
    18:00 +14°C° 0,8 mm 2 m/S 602 mmHg 66%
    19:00 +13°C° 0 mm 2 m/S 602 mmHg 70%
    20:00 +13°C° 0 mm 2 m/S 602 mmHg 74%
    21:00 +12°C° 0 mm 1 m/S 602 mmHg 77%
    22:00 +11°C° 0,1 mm 1 m/S 602 mmHg 78%
    23:00 +11°C° 0,1 mm 1 m/S 602 mmHg 79%

    30 Mai, Mittwoch

    Zeit Temperatur Niederschläge Wind Luftdruck Luftfeuchtigkeit
    00:00 +11°C° 0,1 mm 1 m/S 602 mmHg 80%
    01:00 +11°C° 0,2 mm 1 m/S 602 mmHg 81%
    02:00 +10°C° 0,2 mm 1 m/S 602 mmHg 82%
    03:00 +10°C° 0,2 mm 1 m/S 602 mmHg 82%
    04:00 +11°C° 0 mm 1 m/S 602 mmHg 80%
    05:00 +11°C° 0 mm 1 m/S 602 mmHg 78%
    06:00 +12°C° 0 mm 2 m/S 602 mmHg 76%
    07:00 +13°C° 0 mm 2 m/S 603 mmHg 69%
    08:00 +14°C° 0 mm 2 m/S 603 mmHg 63%
    09:00 +16°C° 0 mm 2 m/S 604 mmHg 56%
    10:00 +17°C° 0,1 mm 3 m/S 604 mmHg 51%
    11:00 +18°C° 0,1 mm 3 m/S 604 mmHg 47%
    12:00 +19°C° 0,1 mm 3 m/S 605 mmHg 42%
    13:00 +20°C° 0,2 mm 3 m/S 605 mmHg 40%
    14:00 +21°C° 0,2 mm 3 m/S 605 mmHg 37%
    15:00 +21°C° 0,2 mm 3 m/S 605 mmHg 35%
    16:00 +20°C° 0,2 mm 3 m/S 604 mmHg 38%
    17:00 +20°C° 0,2 mm 3 m/S 604 mmHg 42%
    18:00 +19°C° 0,2 mm 3 m/S 604 mmHg 45%
    19:00 +17°C° 0,2 mm 2 m/S 603 mmHg 50%
    20:00 +16°C° 0,2 mm 2 m/S 603 mmHg 55%
    21:00 +15°C° 0,2 mm 1 m/S 603 mmHg 60%
    22:00 +14°C° 0 mm 1 m/S 603 mmHg 62%
    23:00 +14°C° 0 mm 1 m/S 602 mmHg 64%

    31 Mai, Donnerstag

    Zeit Temperatur Niederschläge Wind Luftdruck Luftfeuchtigkeit
    00:00 +13°C° 0 mm 1 m/S 602 mmHg 65%
    01:00 +13°C° 0,3 mm 1 m/S 602 mmHg 66%
    02:00 +13°C° 0,3 mm 1 m/S 602 mmHg 67%
    03:00 +13°C° 0,3 mm 1 m/S 602 mmHg 68%
    04:00 +13°C° 0,1 mm 2 m/S 601 mmHg 69%
    05:00 +13°C° 0,1 mm 2 m/S 601 mmHg 69%
    06:00 +13°C° 0,1 mm 2 m/S 601 mmHg 70%
    07:00 +14°C° 0 mm 2 m/S 601 mmHg 63%
    08:00 +16°C° 0 mm 3 m/S 601 mmHg 56%
    09:00 +18°C° 0 mm 3 m/S 602 mmHg 50%
    10:00 +19°C° 0,1 mm 3 m/S 602 mmHg 45%
    11:00 +21°C° 0,1 mm 4 m/S 602 mmHg 40%
    12:00 +22°C° 0,1 mm 4 m/S 602 mmHg 35%
    13:00 +22°C° 0,2 mm 4 m/S 602 mmHg 36%
    14:00 +22°C° 0,2 mm 4 m/S 601 mmHg 36%
    15:00 +22°C° 0,2 mm 3 m/S 601 mmHg 36%
    16:00 +21°C° 0,3 mm 4 m/S 601 mmHg 39%
    17:00 +21°C° 0,3 mm 4 m/S 601 mmHg 41%
    18:00 +20°C° 0,3 mm 4 m/S 601 mmHg 43%
    19:00 +18°C° 0 mm 4 m/S 600 mmHg 47%
    20:00 +16°C° 0 mm 3 m/S 600 mmHg 52%
    21:00 +14°C° 0 mm 3 m/S 600 mmHg 56%
    22:00 +13°C° 0 mm 3 m/S 600 mmHg 57%
    23:00 +13°C° 0 mm 2 m/S 600 mmHg 59%

    1 Juni, Freitag

    Zeit Temperatur Niederschläge Wind Luftdruck Luftfeuchtigkeit
    00:00 +13°C° 0 mm 2 m/S 600 mmHg 61%
    01:00 +12°C° 0 mm 2 m/S 599 mmHg 62%
    02:00 +12°C° 0 mm 2 m/S 599 mmHg 63%
    03:00 +12°C° 0 mm 2 m/S 599 mmHg 65%
    04:00 +12°C° 0 mm 2 m/S 599 mmHg 64%
    05:00 +13°C° 0 mm 2 m/S 600 mmHg 63%
    06:00 +13°C° 0 mm 2 m/S 600 mmHg 62%
    07:00 +15°C° 0 mm 2 m/S 601 mmHg 54%
    08:00 +16°C° 0 mm 2 m/S 601 mmHg 47%
    09:00 +18°C° 0 mm 2 m/S 602 mmHg 39%
    10:00 +19°C° 0 mm 2 m/S 602 mmHg 36%
    11:00 +20°C° 0 mm 3 m/S 602 mmHg 33%
    12:00 +21°C° 0 mm 3 m/S 602 mmHg 30%
    13:00 +21°C° 0 mm 3 m/S 602 mmHg 29%
    14:00 +22°C° 0 mm 3 m/S 602 mmHg 28%
    15:00 +22°C° 0 mm 3 m/S 602 mmHg 27%
    16:00 +22°C° 0 mm 3 m/S 602 mmHg 29%
    17:00 +21°C° 0 mm 3 m/S 602 mmHg 31%
    18:00 +20°C° 0 mm 3 m/S 602 mmHg 34%
    19:00 +18°C° 0 mm 3 m/S 601 mmHg 38%
    20:00 +17°C° 0 mm 2 m/S 601 mmHg 43%
    21:00 +15°C° 0 mm 2 m/S 601 mmHg 47%
    22:00 +14°C° 0 mm 2 m/S 601 mmHg 49%
    23:00 +14°C° 0 mm 2 m/S 600 mmHg 51%
    Mehr zeigen